Theta_e
302 302 302 300 299 299 299 299 300 301 302 303 303 301 300 298 297 296 295 295 294 295
301 300 301 299 298 299 299 301 301 302 303 303 303 302 301 299 298 297 296 296 295 294
301 301 301 298 299 299 300 300 302 302 303 302 302 301 300 299 299 298 297 297 296 295
300 299 298 299 300 300 300 301 302 303 303 301 301 300 299 298 298 298 297 297 297 297
299 299 299 300 300 300 301 301 302 302 302 301 301 300 299 299 299 298 297 297 296 296
300 300 300 301 301 301 301 302 302 302 301 301 301 300 300 300 299 298 298 297 296 296
301 301 302 302 301 302 302 302 301 301 301 302 301 301 300 299 298 297 297 297 296 296
303 302 302 301 302 302 302 303 303 301 301 301 301 301 299 298 297 297 296 296 296 297
302 301 302 302 301 301 301 301 301 301 301 300 300 306 307 301 297 296 296 296 296 297
303 302 302 302 301 301 301 301 301 301 301 300 299 308 310 308 297 296 296 296 296 296
303 302 303 301 301 302 301 300 301 301 301 300 300 308 311 311 300 299 298 297 296 295
303 303 302 301 301 302 300 300 301 302 301 301 300 308 311 310 300 298 297 296 296 295
303 303 302 302 302 302 302 302 302 301 302 304 301 308 310 307 299 296 295 294 295 302
300 302 303 302 302 301 301 301 300 301 301 301 302 302 310 309 298 298 295 293 293 294
Wind_Speed
11 8 9 7 6 5 5 5 5 6 6 6 6 5 5 4 4 5 5 7 6 4
11 11 10 8 6 5 6 5 6 6 6 6 6 6 6 4 5 5 5 6 6 5
12 12 10 7 9 8 7 7 6 6 6 6 6 6 6 5 5 6 4 4 6 5
10 10 8 9 9 9 6 7 7 7 6 7 7 7 6 6 6 6 6 5 6 6
8 8 10 11 10 8 8 7 8 7 7 7 7 7 7 7 6 7 7 6 6 6
11 11 13 12 10 9 8 8 7 7 8 8 8 8 7 7 7 7 7 7 6 6
13 14 13 11 10 11 10 9 9 9 9 8 8 8 8 8 7 7 7 6 6 6
12 10 9 10 11 10 10 11 11 10 9 8 8 7 8 8 8 7 7 5 6 6
10 10 12 11 11 10 10 10 10 11 11 10 7 12 15 10 7 7 7 6 6 5
12 13 14 12 10 12 13 10 13 11 11 11 9 15 16 16 7 7 7 7 6 5
12 14 12 12 14 13 11 13 13 13 12 10 9 16 17 16 7 6 7 7 7 6
15 15 12 13 15 13 11 11 13 11 13 14 10 17 17 14 8 6 7 6 6 6
10 12 13 15 15 11 11 14 11 12 14 16 12 17 19 14 6 7 5 5 6 11
9 13 14 12 9 10 11 8 11 12 11 13 13 12 19 19 8 8 6 5 5 4
Wind_Direction
202 204 211 201 194 211 209 213 210 216 216 222 218 210 199 199 204 194 205 205 207 198
199 201 207 201 197 210 207 215 219 219 224 224 212 204 189 202 209 198 202 211 204 206
203 204 207 176 207 212 215 207 212 216 216 215 209 199 190 201 207 193 208 202 202 209
198 198 190 200 211 211 195 197 209 207 206 208 203 198 190 203 201 205 205 203 210 223
188 184 197 210 211 190 206 195 202 197 202 205 205 195 192 199 197 205 213 213 209 230
200 194 208 211 203 190 196 199 196 194 201 204 204 195 202 198 199 205 211 210 206 220
207 207 209 204 197 196 194 193 193 196 202 205 203 199 197 194 200 206 211 208 205 210
209 204 201 199 201 199 192 202 198 191 198 200 200 199 193 194 195 199 208 205 204 211
197 188 203 204 200 193 202 200 193 199 196 197 204 200 198 185 187 196 194 202 206 205
203 203 204 201 192 203 204 190 202 198 194 202 200 198 202 195 183 185 192 195 189 207
202 210 209 196 200 206 196 196 199 201 198 194 204 197 200 194 181 183 190 184 191 200
206 210 200 196 205 205 192 193 202 197 191 196 203 194 193 179 169 181 189 182 185 195
213 213 205 205 205 198 195 205 195 198 196 196 196 191 189 172 163 175 177 181 192 203
199 205 209 209 195 192 197 190 192 198 194 189 190 188 187 174 175 180 169 176 186 191